Powrót do katalogu

ARIANE 44L R/B

AktywnyHEO
NORAD 26696·ROCKET BODY·🇫🇷 France

Wystrzelony Feb 7, 2001 z Guiana Space Centre

Loading…

Następne Przeloty (najbliższe 24 godziny)

TLE

ŚwieżeSource: Space-Track

Epoka: Sep 14, 2026, 10:45 UTC

1 26696U 01005C   26257.44805592  .00001193  00000-0  89397-3 0  9997
2 26696   7.3982   8.6031 6882707 272.0501  17.2958  2.75578525232008

Śledź ARIANE 44L R/B w czasie rzeczywistym z AllMySat

Download on the App Store